Hourly Data Report for January 28, 2017

TORONTO CITY
ONTARIO

43°40'00.000" N
79°24'00.000" W
112.50 m
6158355
71508
XTO

Download Data

Hourly Data (January 2017)
Hourly Data Report for January 28, 2017
TIME
LST
Temp Definition
°C
Dew Point Definition
°C
Rel Hum Definition
%
Precip. Amount Definition
mm

Wind Dir Definition
10's deg

Wind Spd Definition
km/h
Visibility Definition
km
Stn Press Definition
kPa
Hmdx Definition


Wind Chill Definition


Weather Definition


00:00 -0.1 -5.2 69 0.0 LegendMM LegendMM   98.89     LegendNANA
01:00 -0.3 -5.1 70 0.0 LegendMM LegendMM   98.87     LegendNANA
02:00 -0.4 -5.2 70 0.0 LegendMM LegendMM   98.85     LegendNANA
03:00 -0.6 -5.7 68 0.0 LegendMM LegendMM   98.87     LegendNANA
04:00 -0.8 -5.6 70 0.0 LegendMM LegendMM   98.87     LegendNANA
05:00 -0.9 -5.7 70 0.0 LegendMM LegendMM   98.84     LegendNANA
06:00 -0.5 -6.8 62 0.0 LegendMM LegendMM   98.87     LegendNANA
07:00 -0.9 -4.6 76 0.0 LegendMM LegendMM   98.87     LegendNANA
08:00 -0.9 -4.5 77 0.2 LegendMM LegendMM   98.86     LegendNANA
09:00 -1.0 -4.7 76 0.0 LegendMM LegendMM   98.87     LegendNANA
10:00 -0.9 -4.7 75 0.0 LegendMM LegendMM   98.89     LegendNANA
11:00 -1.2 -4.7 77 0.0 LegendMM LegendMM   98.90     LegendNANA
12:00 -1.1 -4.5 78 0.0 LegendMM LegendMM   98.83     LegendNANA
13:00 -1.1 -4.4 78 0.0 LegendMM LegendMM   98.76     LegendNANA
14:00 -0.5 -4.2 76 0.2 LegendMM LegendMM   98.72     LegendNANA
15:00 -0.4 -4.2 75 0.0 LegendMM LegendMM   98.72     LegendNANA
16:00 -0.4 -4.0 76 0.0 LegendMM LegendMM   98.72     LegendNANA
17:00 -0.3 -3.7 78 0.0 LegendMM LegendMM   98.74     LegendNANA
18:00 -0.3 -3.3 81 0.0 LegendMM LegendMM   98.74     LegendNANA
19:00 -0.9 -2.9 86 0.2 LegendMM LegendMM   98.75     LegendNANA
20:00 -0.8 -3.2 84 0.0 LegendMM LegendMM   98.73     LegendNANA
21:00 -0.6 -3.4 82 0.0 LegendMM LegendMM   98.72     LegendNANA
22:00 -0.7 -3.3 83 0.0 LegendMM LegendMM   98.74     LegendNANA
23:00 -0.5 -3.8 78 0.0 LegendMM LegendMM   98.75     LegendNANA

Notes on Data Quality.

Legend

  • E = Estimated
  • M = Missing
  • NA = Not Available*
  • [empty] = Indicates an unobserved value
Date modified: